Tracking 28790 objects as of 19-Apr-2024
HD Live streaming from Space Station
objects crossing your sky now

CZ-2C DEB

Track CZ-2C DEB now!
10-day predictions


NORAD ID: 37732
Int'l Code: 2011-030C
Perigee: 685.3 km
Apogee: 901.7 km
Inclination: 98.0 °
Period: 100.6 minutes
Semi major axis: 7164 km
RCS: 0.0895 m2 (small)
Launch date: July 6, 2011
Source: People's Republic of China (PRC)
Launch site: Jiuquan Satellite Launch Center, China (JSC)

Note: This is SATELLITE DEBRIS
Your satellite tracking list
Your tracking list is empty




NASA's NSSDC Master Catalog

Two Line Element Set (TLE):
1 37732U 11030C   24109.22775757  .00005023  00000-0  16770-2 0  9998
2 37732  98.0218 198.4255 0151017   2.3122  50.4967 14.31606669665067
Source of the keplerian elements: AFSPC